Regional Weather Roundup
Issued by NWS

Home | Current Version | Previous Version | Text Only | Print | Product List | Glossary On
Versions: 1 2 3 4 5 6 7 8 9 10 11 12 13 14 15 16 17 18 19 20 21 22 23 24 25 26 27 28 29 30 31 32 33 34 35 36 37 38 39 40 41 42 43 44 45 46 47 48 49 50
000
ASCA42 TJSJ 232011
RWRPR
PUERTO RICO/U.S. VIRGIN ISLANDS HOURLY WEATHER ROUNDUP
NATIONAL WEATHER SERVICE SAN JUAN PR
400 PM AST WED APR 23 2014

PRZ001-004-232100-
PUERTO RICO

CITY           SKY/WX    TMP DP  RH WIND       PRES   REMARKS
SAN JUAN LMM   MOSUNNY   91  66  43 S7        29.89F HX  94
AGUADILLA      PTSUNNY   84  72  65 N9        29.93F
CEIBA          MOSUNNY   82  73  74 S10       29.94F
$$

PRZ006-007-232100-
U.S. VIRGIN ISLANDS

CITY           SKY/WX    TMP DP  RH WIND       PRES   REMARKS
CHARLOTTE AMA  LGT RAIN  79  72  78 E3        29.93F
CHRISTIANSTED  MOSUNNY   84  72  65 S9        29.94F
$$

HOURLY WEATHER ROUNDUP FOR THE NEWS MEDIA

CITY           SKY/WX    TMP DP  RH WIND       PRES   REMARKS
MIAMI          MOSUNNY   84  58  40 SW7       29.90F
ORLANDO        SUNNY     83  58  42 MISG      29.88F
NEW YORK       PTSUNNY   61  32  33 NW30G36   29.60S
NEWARK         PTSUNNY   61  33  35 NW23G32   29.61R
CHICAGO        PTSUNNY   51  25  36 NE9       30.14F
HARTFORD       CLOUDY    51  47  86 NW9       29.43S
BOSTON         CLOUDY    53  38  56 NW24G35   29.44F
DALLAS         MOSUNNY   86  58  38 S15G24    29.82F
PHILADELPHIA   PTSUNNY   60  32  34 NW22G36   29.73R



USA.gov is the U.S. government's official web portal to all federal, state and local government web resources and services.